This is the latest recevied weather packets stored in our database for station/object N0QV. If no packets are shown the sender has not sent any weather packets the latest 10 day(s).
| Time | Temp. | Humidity | Pressure | Rain* | Wind** | Luminosity | Snow |
|---|---|---|---|---|---|---|---|
| 1777582345 | 12.22° C | 40% | 1017.5 hPa | 0 mm | - | 424 W/m² | - |
| 1777582043 | 11.67° C | 40% | 1017.6 hPa | 0 mm | - | 544 W/m² | - |
| 1777581738 | 11.11° C | 44% | 1017.5 hPa | 0 mm | - | 143 W/m² | - |
| 1777581437 | 11.67° C | 42% | 1017.5 hPa | 0 mm | - | 163 W/m² | - |
| 1777581132 | 11.11° C | 43% | 1017.5 hPa | 0 mm | - | 229 W/m² | - |
| 1777580827 | 10.56° C | 42% | 1017.9 hPa | 0 mm | - | 287 W/m² | - |
| 1777580523 | 11.11° C | 42% | 1017.7 hPa | 0 mm | - | 223 W/m² | - |
| 1777580218 | 11.11° C | 42% | 1017.7 hPa | 0 mm | - | 222 W/m² | - |
| 1777579915 | 11.11° C | 42% | 1017.6 hPa | 0 mm | - | 410 W/m² | - |
| 1777579611 | 11.67° C | 41% | 1017.8 hPa | 0 mm | - | 196 W/m² | - |
| 1777579309 | 11.11° C | 41% | 1017.6 hPa | 0 mm | - | 815 W/m² | - |
| 1777579005 | 11.11° C | 42% | 1017.5 hPa | 0 mm | - | 183 W/m² | - |
| 1777578700 | 10.56° C | 41% | 1017.9 hPa | 0 mm | - | 774 W/m² | - |
| 1777578399 | 11.67° C | 40% | 1017.9 hPa | 0 mm | - | 245 W/m² | - |
| 1777578096 | 11.67° C | 40% | 1017.9 hPa | 0 mm | - | 692 W/m² | - |
| 1777577792 | 11.11° C | 41% | 1018 hPa | 0 mm | - | 792 W/m² | - |
| 1777577488 | 11.11° C | 42% | 1017.7 hPa | 0 mm | - | 260 W/m² | - |
| 1777577185 | 11.11° C | 42% | 1017.9 hPa | 0 mm | - | 262 W/m² | - |
| 1777576881 | 10.56° C | 41% | 1018.2 hPa | 0 mm | - | 218 W/m² | - |
| 1777576580 | 10.56° C | 40% | 1018.1 hPa | 0 mm | - | 797 W/m² | - |
| 1777576276 | 11.11° C | 43% | 1018.1 hPa | 0 mm | - | 616 W/m² | - |
| 1777575973 | 11.67° C | 41% | 1018.2 hPa | 0 mm | - | 180 W/m² | - |
| 1777575669 | 11.67° C | 41% | 1018 hPa | 0 mm | - | 789 W/m² | - |
| 1777575364 | 11.67° C | 39% | 1018.2 hPa | 0 mm | - | 802 W/m² | - |
| 1777575061 | 10.56° C | 42% | 1018.2 hPa | 0 mm | - | 236 W/m² | - |
* Rain latest hour (hover to see other rain measurements)
** Current wind speed in m/s (hover to see current wind gust speed)